GW3819 Weather Reports


time (UTC)temp
F
wind
direction
speed
knots
gust
knots
rain 1hr
in
rain 24hr
in
rain mn
in
humidity
%
barometer
mb
20260507010007 37 170 1.7 3.5 0.00 0.01 0.00 82 1009.6
20260507004503 37 165 2.6 3.5 0.00 0.01 0.00 82 1009.7
20260507003001 37 223 0.0 1.7 0.00 0.01 0.00 82 1009.4
20260507001500 37 158 1.7 3.5 0.00 0.01 0.00 81 1009.3
20260507000059 37 160 2.6 7.0 0.00 0.01 0.00 82 1009.5
20260506234600 37 167 0.9 2.6 0.00 0.01 0.00 82 1009.7
20260506233059 38 167 0.9 5.2 0.00 0.01 0.00 81 1009.7
20260506231607 38 171 0.9 4.3 0.00 0.01 0.00 78 1009.6
20260506230106 39 148 0.0 1.7 0.00 0.01 0.00 78 1009.6
20260506224552 39 131 3.5 7.8 0.00 0.01 0.00 76 1009.5
20260506223050 38 130 4.3 13.0 0.00 0.01 0.00 78 1009.4
20260506221608 38 170 2.6 8.7 0.00 0.01 0.00 77 1009.3
20260506220055 38 121 2.6 7.8 0.00 0.01 0.00 77 1009.2
20260506214547 39 121 4.3 10.4 0.00 0.01 0.01 77 1009.0
20260506213058 39 125 5.2 10.4 0.00 0.01 0.01 77 1009.1
20260506211541 38 164 7.8 13.9 0.01 0.01 0.01 79 1009.0
20260506210046 38 94 7.8 13.9 0.01 0.01 0.01 81 1009.0
20260506204538 39 238 1.7 8.7 0.01 0.01 0.01 79 1009.1
20260506203035 39 133 3.5 7.8 0.01 0.01 0.01 77 1009.1
20260506201539 40 219 6.1 13.0 0.00 0.00 0.00 72 1009.3
20260506200030 41 204 8.7 16.5 0.00 0.00 0.00 70 1008.9
20260506194528 40 209 2.6 6.1 0.00 0.00 0.00 72 1008.7
20260506193026 42 192 2.6 13.9 0.00 0.00 0.00 68 1008.3
20260506191524 41 244 6.1 14.8 0.00 0.00 0.00 68 1008.1
20260506190028 42 175 8.7 13.9 0.00 0.00 0.00 67 1008.0
20260506184524 41 186 5.2 8.7 0.00 0.00 0.00 67 1007.6
20260506183020 42 223 7.8 13.9 0.00 0.00 0.00 61 1007.5
20260506181520 43 219 12.2 24.3 0.00 0.00 0.00 67 1007.0
20260506180024 44 207 8.7 19.1 0.00 0.00 0.00 68 1006.7
20260506174524 44 187 8.7 15.6 0.00 0.00 0.00 66 1006.3
20260506173018 45 196 8.7 14.8 0.00 0.00 0.00 63 1005.9
20260506171530 46 194 9.6 15.6 0.00 0.00 0.00 63 1005.6
20260506170016 47 171 7.8 13.9 0.00 0.00 0.00 55 1005.4
20260506164520 48 179 5.2 12.2 0.00 0.00 0.00 53 1005.2
20260506163017 48 18 6.1 12.2 0.00 0.00 0.00 52 1004.9
20260506161516 49 202 1.7 8.7 0.00 0.00 0.00 52 1004.7
20260506160016 50 325 3.5 10.4 0.00 0.00 0.00 53 1004.5
20260506154514 50 267 7.8 17.4 0.00 0.00 0.00 49 1004.8
20260506153013 51 235 7.8 23.5 0.00 0.00 0.00 48 1004.8
20260506151516 52 282 4.3 19.1 0.00 0.00 0.00 48 1004.8
20260506150012 51 303 5.2 13.0 0.00 0.00 0.00 48 1004.8
20260506144509 50 208 4.3 13.0 0.00 0.00 0.00 51 1004.9
20260506143009 50 41 5.2 13.0 0.00 0.00 0.00 55 1005.1
20260506141507 52 211 4.3 14.8 0.00 0.00 0.00 55 1005.2
20260506140013 49 340 4.3 10.4 0.00 0.00 0.00 59 1005.1
20260506134505 47 169 8.7 13.9 0.00 0.00 0.00 61 1005.5
20260506133004 47 222 6.1 15.6 0.00 0.00 0.00 65 1005.2
20260506131506 47 18 2.6 13.0 0.00 0.00 0.00 65 1005.2
20260506130003 47 166 4.3 16.5 0.00 0.00 0.00 64 1005.2
20260506124505 47 192 8.7 18.2 0.00 0.00 0.00 62 1005.1
20260506123001 47 221 6.1 12.2 0.00 0.00 0.00 67 1005.0
20260506121601 48 212 3.5 9.6 0.00 0.00 0.00 63 1004.7
20260506114559 51 322 0.9 3.5 0.00 0.00 0.00 65 1004.5
20260506113058 52 188 0.9 4.3 0.00 0.00 0.00 63 1004.4
20260506111556 52 289 0.9 4.3 0.00 0.00 0.00 66 1004.4
20260506110054 52 262 0.9 4.3 0.00 0.00 0.00 64 1004.7
20260506104556 52 248 1.7 7.0 0.00 0.00 0.00 64 1004.9
20260506103052 50 303 0.9 3.5 0.00 0.00 0.00 72 1005.2
20260506101546 48 340 1.7 7.8 0.00 0.00 0.00 67 1005.4
20260506100053 46 71 2.6 10.4 0.00 0.00 0.00 74 1005.4
20260506094539 47 15 0.9 7.8 0.00 0.00 0.00 71 1005.6
20260506093035 46 360 0.9 5.2 0.00 0.00 0.00 73 1005.5
20260506091534 45 231 0.0 5.2 0.00 0.00 0.00 77 1005.7
20260506090030 45 338 1.7 13.0 0.00 0.00 0.00 74 1005.6
20260506084526 44 82 2.6 7.8 0.00 0.00 0.00 75 1005.8
20260506083024 44 154 2.6 8.7 0.00 0.00 0.00 76 1005.8
20260506081622 44 49 3.5 10.4 0.00 0.00 0.00 78 1005.7
20260506073019 42 161 2.6 6.1 0.00 0.00 0.00 81 1005.9
20260506071518 42 212 0.9 5.2 0.00 0.00 0.00 81 1005.8
20260506061513 41 98 3.5 11.3 0.00 0.00 0.00 83 1006.2
20260506044559 40 155 2.6 10.4 0.00 0.00 0.00 83 1006.4
20260506043056 40 138 4.3 9.6 0.00 0.00 0.00 84 1006.5
20260506041602 39 360 0.0 3.5 0.00 0.00 0.00 83 1006.5
20260506040105 39 355 0.0 2.6 0.00 0.00 0.00 83 1006.7
20260506034553 39 313 0.9 3.5 0.00 0.00 0.00 83 1006.7
20260506033051 40 278 0.9 8.7 0.00 0.00 0.00 83 1006.8
20260506031550 40 125 2.6 7.8 0.00 0.00 0.00 83 1006.8
20260506030059 39 290 2.6 5.2 0.00 0.00 0.00 83 1007.1
20260506024554 39 186 0.9 2.6 0.00 0.00 0.00 82 1007.2
20260506023044 40 181 2.6 7.8 0.00 0.00 0.00 82 1007.5
20260506021543 39 113 0.9 1.7 0.00 0.00 0.00 81 1007.7
20260506020041 40 155 0.9 4.3 0.00 0.00 0.00 82 1007.6
20260506014553 39 42 0.9 3.5 0.00 0.00 0.00 82 1007.9
20260506013042 39 66 0.0 1.7 0.00 0.00 0.00 82 1008.0
20260506011540 39 91 0.9 2.6 0.00 0.00 0.00 82 1007.7